Preview of NWS' New Version of Forecast
This preview is not operational and should not be used for support decisions.

Regional Weather Roundup (RWR)

Issued by National Weather Service (NWS)

                            
000
ASUS43 KMKX 181321
RWRWI 

WISCONSIN REGIONAL WEATHER ROUNDUP
NATIONAL WEATHER SERVICE MILWAUKEE/SULLIVAN WI
800 AM CDT WED SEP 18 2019

NOTE: "FAIR" INDICATES FEW OR NO CLOUDS BELOW 12,000 FEET WITH NO
SIGNIFICANT WEATHER AND/OR OBSTRUCTIONS TO VISIBILITY.

WIZ001-002-006>008-014>016-023>028-181400-
NORTHWEST WISCONSIN
  
CITY           SKY/WX    TMP DP  RH WIND       PRES   REMARKS
SUPERIOR ARPT  RAIN      66  66 100 S7        29.92S                  
ASHLAND        CLOUDY    71  66  84 SW10      29.97R                  
HAYWARD        CLOUDY    70  65  84 S7        29.99R HAZE             
SIREN          HVY RAIN  68  67  95 SE3       29.93F                  
CUMBERLAND     CLOUDY    66  64  94 S10       29.98S                  
RICE LAKE      CLOUDY    69  54  58 SE9       30.00R                  
CHETEK         CLOUDY    69  67  94 S6        30.00R                  
LADYSMITH      CLOUDY    69  67  93 S8        30.04R                  
EAU CLAIRE     FAIR      70  65  84 S12       29.99R                  
MENOMONIE      CLOUDY    67  64  91 S8        30.01R                  
NEW RICHMOND   RAIN      69  66  90 SE8       29.95S                  
OSCEOLA        LGT RAIN  70  70 100 SE10      29.95F                  
$$
 
WIZ003>005-009-010-017-018-181400-
NORTH CENTRAL WISCONSIN
  
CITY           SKY/WX    TMP DP  RH WIND       PRES   REMARKS
MANITOWISH WTR CLOUDY    65  65 100 S12       30.05S                  
ARBOR VITAE    CLOUDY    65  62  89 S12G22    30.08R FOG              
WOODRUFF       CLOUDY    65  62  89 S12G22    30.08R FOG              
RHINELANDER    CLOUDY    64  60  87 S8        30.10R                  
EAGLE RIVER    CLOUDY    64  63  96 SW7       30.09S FOG              
LAND O LAKES   CLOUDY    64  60  87 S5        30.09R                  
PHILLIPS       CLOUDY    67  66  96 S9        30.03F                  
TOMAHAWK       CLOUDY    64  61  93 CALM      30.09R                  
MEDFORD        PTSUNNY   63  62  96 S8        30.07F FOG              
MERRILL        CLOUDY    63  62  97 S3        30.10S FOG              
$$
 
WIZ029-030-035-036-043>047-181400-
CENTRAL WISCONSIN
  
CITY           SKY/WX    TMP DP  RH WIND       PRES   REMARKS
WAUSAU         FAIR      60  59  96 SE7       30.08R                  
MOSINEE        MOSUNNY   59  55  88 SE3       30.11R HAZE             
MARSHFIELD     CLOUDY    64  62  93 S8        30.07R FOG              
STEVENS POINT  FAIR      62  61  97 S7        30.11R                  
WAUPACA        FAIR      63  62  97 CALM      30.12R FOG              
WAUTOMA        NOT AVBL                                               
WISC RAPIDS    FAIR      62  60  93 SE6       30.09R FOG              
CAMP DOUGLAS   MOSUNNY   66  64  94 S3        30.07R                  
$$
 
WIZ011>013-019>022-031-037>040-048>050-181400-
NORTHEAST WISCONSIN
  
CITY           SKY/WX    TMP DP  RH WIND       PRES   REMARKS
ANTIGO         FAIR      60  59  97 SW6       30.13R                  
SHAWANO        FAIR      62  62  97 CALM      30.11R                  
OCONTO         FAIR      65  62  90 S6        30.11R                  
STURGEON BAY   PTSUNNY   64  63  96 MISG      30.12R                  
GREEN BAY      FAIR      64  60  87 SW5       30.11R                  
MANITOWOC      FAIR      64  63  96 S6        30.12R                  
APPLETON       MOSUNNY   64  63  94 S8        30.09R                  
CLINTONVILLE   NOT AVBL                                               
OSHKOSH        FAIR      64  60  87 S6        30.11R                  
$$
 
WIZ032>034-041-042-053>061-181400-
SOUTHWEST WISCONSIN
  
CITY           SKY/WX    TMP DP  RH WIND       PRES   REMARKS
LA CROSSE      FAIR      71  64  78 S13       30.02R                  
SPARTA         FAIR      65  60  85 SW5       30.06R                  
VIROQUA        FAIR      64  64 100 SE10      30.07S                  
BOSCOBEL       FAIR      68  62  81 VRB5      30.06R                  
PRAIRIE DU CHI FAIR      67  63  86 SE3       30.04S                  
PLATTEVILLE    FAIR      65  65 100 S6        30.09R                  
$$

WIZ056-057-062-063-064-067-068-181400-
SOUTH CENTRAL WISCONSIN
  
CITY           SKY/WX    TMP DP  RH WIND       PRES   REMARKS
REEDSBURG      FAIR      65  64  96 S8        30.09R                  
BARABOO/DELLS  FAIR      63  60  91 S9        30.09S                  
LONE ROCK      FAIR      65  62  90 E6        30.08R FOG              
MINERAL POINT  FAIR      64  64 100 SE7       30.10R FOG              
MADISON        PTSUNNY   64  60  87 S8        30.10R                  
MIDDLETON      FAIR      65  59  82 S3        30.11R                  
WATERTOWN      FAIR      64  64 100 S5        30.12R FOG              
MONROE         FAIR      64  60  90 S8        30.11R                  
JANESVILLE     MOSUNNY   64  64 100 S5        30.10R                  
$$
 
WIZ051-052-058>065-066-070>072-181400-
SOUTHEAST WISCONSIN
  
CITY           SKY/WX    TMP DP  RH WIND       PRES   REMARKS
MILWAUKEE      FAIR      65  62  90 S6        30.11R                  
WAUKESHA       SUNNY     63  57  82 SE5       30.13R FOG              
MILWAUKEE/TIMM SUNNY     64  59  82 S7        30.12R HAZE             
RACINE         FAIR      66  62  87 S7        30.14R                  
KENOSHA        FAIR      67  63  87 S7        30.12R                  
FOND DU LAC    FAIR      66  61  84 S7        30.11R                  
SHEBOYGAN      FAIR      64  63  96 S7        30.11S FOG              
WEST BEND      FAIR      61  61 100 CALM      30.12R FOG              
JUNEAU         FAIR      63  62  94 S3        30.13R FOG              
$$

LSZ147-162-181400-
LAKE SUPERIOR
  
STATION/POSITION TIME  TEMP    WIND        PRES    WAVE
                       AIR SEA DIR/SP/G            HT/PER
                 (UTC) (F)     (DEG/KT/KT) (MB)    (FT/S)
W MID LAKE BUOY  1250   59 53  150/ 10/ 10 1012.9S   2/ 4
DEVILS ISLAND    1300   66     210/ 10/ 13 1013.2R
SAXON HARBOR     1230   71     190/ 13/ 18 1013.5R
$$
 
LMZ867-665-643>646-181400-
LAKE MICHIGAN
  
STATION/POSITION TIME  TEMP    WIND        PRES    WAVE
                       AIR SEA DIR/SP/G            HT/PER
                 (UTC) (F)     (DEG/KT/KT) (MB)    (FT/S)
CHAMBERS ISLAND  1240   65     120/  6/ 12   N/A
N MID LAKE BUOY  1300   64 62  190/ 14/ 17 1020.6
NORTHPORT PIER   1240   62     120/  7/ 10 1020.0R
KEWAUNEE LAKESHO 1236   63     190/ 12/ 13 1019.0R
SHEBOYGAN LAKESH 1300   64     190/ 12/ 13 1019.7R
PORT WASHINGTON  1240   61     200/  2/  4 1020.7S
MILWAUKEE LAKESH 1100   65     190/  4/  5   N/A
S MID LAKE BUOY  1300   67 68  150/ 14/ 17 1020.2
KENOSHA   LAKESH 1300   65     170/  6/  8 1020.0
$$

TC  - TEMPERATURE IN CELSIUS
VSB - VISIBILITY IN STATUTE MILES
WCI - WIND CHILL INDEX
HX  - HEAT INDEX